Home > Weather > Warendorf > Past weeks

Flag for Germany Past Weather in Warendorf, North Rhine-Westphalia, Germany — Yesterday and Last 2 Weeks

Now
61 °F

Fog.


Feels Like: 61 °F
Forecast: 60 / 73 °F
Wind: 6 mph from North

Location: Muenster / Osnabrueck

Current Time: May 30, 2016 at 1:16:39 AM

Latest Report: May 30, 2016 at 12:50 AM


Visibility: 2 mi

Pressure: 29.74 "Hg

Humidity: 94%

Dew Point: 59 °F

Location of WarendorfLocation

Past Weather in Warendorf — Graph

°F

Warendorf Temperature Yesterday

Maximum temperature yesterday: 64 °F (at 11:50 AM)
Minimum temperature yesterday: 59 °F (at 5:20 AM)
Average temperature yesterday: 61 °F

High & Low Weather Summary for the Past Weeks

 TemperatureHumidityPressure
High75 °F (May 21, 3:20 PM)100% (May 19, 6:20 AM)30.09 "Hg (May 19, 6:20 AM)
Low36 °F (May 16, 3:50 AM)37% (May 18, 2:20 PM)29.68 "Hg (May 19, 1:50 AM)
Average57 °F75%29.93 "Hg
* Reported May 15 12:20 AM — May 30 12:20 AM, Warendorf, Weather by CustomWeather, © 2016

Note: Actual official high and low records may vary slightly from our data, if they occured in-between our weather recording intervals... More about our weather records

Advertising

Warendorf Weather History for the Previous 24 Hours

Scroll right to see more
 ConditionsComfort  
Time TempWeatherWind HumidityBarometerVisibility
12:20 AM
Mon, May 30
61 °FFog.5 mph94%29.74 "Hg2 mi
11:50 PM
Sun, May 29
61 °FFog.5 mph94%29.74 "Hg3 mi
11:20 PM61 °FPassing clouds.5 mph94%29.74 "Hg4 mi
10:50 PM61 °FPassing clouds.6 mph94%29.74 "Hg4 mi
10:20 PM61 °FPartly sunny.7 mph94%29.74 "Hg4 mi
9:50 PM61 °FBroken clouds.6 mph94%29.74 "Hg5 mi
9:20 PM61 °FBroken clouds.6 mph94%29.74 "Hg5 mi
8:50 PM61 °FPartly sunny.6 mph94%29.74 "Hg6 mi
8:20 PM61 °FPartly sunny.7 mph94%29.74 "Hg6 mi
7:50 PM61 °FPartly sunny.8 mph94%29.74 "Hg6 mi
7:20 PM61 °FPartly sunny.9 mph94%29.74 "HgN/A
6:50 PM61 °FPartly sunny.8 mph94%29.74 "HgN/A
6:20 PM61 °FPartly sunny.10 mph88%29.74 "HgN/A
5:50 PM61 °FPartly sunny.10 mph88%29.74 "HgN/A
5:20 PM61 °FPartly sunny.10 mph88%29.74 "HgN/A
4:50 PM63 °FPartly sunny.13 mph83%29.74 "HgN/A
4:20 PM63 °FPartly sunny.13 mph83%29.74 "HgN/A
3:50 PM63 °FPartly sunny.14 mph83%29.74 "HgN/A
3:20 PM63 °FPartly sunny.13 mph83%29.77 "Hg4 mi
2:50 PM63 °FPartly sunny.8 mph83%29.77 "Hg4 mi
2:20 PM63 °FPartly sunny.10 mph83%29.77 "HgN/A
1:50 PM63 °FPartly sunny.8 mph83%29.77 "HgN/A
1:20 PM63 °FPartly sunny.10 mph83%29.77 "HgN/A
12:50 PM63 °FPartly sunny.9 mph83%29.77 "Hg6 mi
12:20 PM63 °FPartly sunny.12 mph83%29.77 "HgN/A
11:50 AM64 °FBroken clouds.13 mph78%29.77 "HgN/A
11:20 AM63 °FBroken clouds.9 mph83%29.77 "HgN/A
10:50 AM63 °FLight rain. Partly sunny.6 mph83%29.77 "HgN/A
10:20 AM63 °FPartly sunny.7 mph83%29.77 "HgN/A
9:50 AM61 °FLight rain. Broken clouds.8 mph88%29.77 "HgN/A
9:20 AM61 °FBroken clouds.9 mph88%29.77 "HgN/A
8:50 AM61 °FBroken clouds.7 mph88%29.77 "HgN/A
8:20 AM61 °FBroken clouds.6 mph83%29.77 "HgN/A
7:50 AM61 °FPartly sunny.8 mph83%29.77 "HgN/A
7:20 AM61 °FPartly sunny.7 mph83%29.77 "HgN/A
6:50 AM61 °FSprinkles. Broken clouds.6 mph83%29.77 "HgN/A
6:20 AM59 °FSprinkles. Broken clouds.6 mph88%29.80 "HgN/A
5:50 AM59 °FPartly cloudy.5 mph82%29.80 "HgN/A
5:20 AM59 °FScattered showers. Partly cloudy.6 mph82%29.80 "HgN/A
4:50 AM61 °FSprinkles. Partly cloudy.6 mph77%29.80 "HgN/A
4:20 AM61 °FSprinkles. Partly cloudy.6 mph77%29.80 "HgN/A
3:50 AM61 °FSprinkles. Partly cloudy.2 mph77%29.80 "HgN/A
3:20 AM61 °FScattered showers. Passing clouds.3 mph77%29.83 "HgN/A
2:50 AM61 °FPassing clouds.5 mph77%29.83 "HgN/A
2:20 AM61 °FPassing clouds.5 mph77%29.83 "HgN/A
1:50 AM61 °FPassing clouds.3 mph77%29.83 "HgN/A
1:20 AM61 °FPassing clouds.5 mph77%29.83 "HgN/A
Weather by CustomWeather, © 2016

See weather overviewHow to use our weather pages